Probability
0 0 0 0 0 0 0 0 0 0 0 0 0 3 6 3 10 10 13 6 10 6 10 10 10 13 13 13 16 13 10 10 10 10 10 10 3 3 0 0 0 0 0 0
0 0 0 0 0 0 0 0 0 3 6 3 0 0 0 0 6 13 23 16 13 16 13 10 10 16 13 10 10 10 10 10 10 10 6 3 3 3 0 0 0 0 0 0
0 0 0 0 0 0 0 0 0 0 3 6 6 3 10 6 10 16 29 16 19 16 19 16 16 19 16 10 10 10 10 10 10 6 6 6 6 3 3 0 0 0 0 0
0 0 0 0 0 0 0 0 10 16 16 13 13 13 13 16 19 29 39 26 19 19 16 13 13 13 16 10 10 10 10 6 6 6 6 6 3 3 3 0 0 0 0 0
0 0 0 0 0 0 0 0 3 6 10 10 10 6 16 16 16 16 16 16 13 13 13 13 10 13 10 10 6 6 6 6 6 6 6 3 3 3 3 0 0 0 0 0
0 0 0 0 0 0 0 0 3 6 10 13 0 6 10 16 13 13 10 16 16 19 13 13 13 10 6 10 10 10 6 3 3 3 3 3 3 3 0 0 0 0 0 0
0 0 0 0 0 0 0 0 3 6 6 0 6 3 6 13 10 3 0 3 3 6 3 6 13 6 6 6 10 6 0 0 0 0 0 0 0 0 0 0 0 0 0 0
0 0 0 0 0 0 0 3 3 6 0 3 6 3 3 3 6 3 0 0 3 3 6 6 6 10 3 0 3 0 0 0 0 0 0 0 0 0 0 0 0 0 0 0
0 0 0 0 0 0 0 0 0 0 0 0 0 6 6 6 6 3 3 3 3 3 3 3 3 3 0 0 0 0 0 0 0 0 0 0 0 0 0 0 0 0 0 0
0 0 0 0 0 0 0 0 0 0 3 0 0 0 0 0 3 3 3 0 0 0 0 0 0 0 0 0 0 0 0 0 0 0 0 0 0 0 0 0 0 0 0 0
0 0 0 0 0 0 0 0 0 0 0 0 0 0 0 0 0 3 0 0 0 0 0 0 0 0 0 0 0 0 0 0 0 0 0 0 0 0 0 0 0 0 0 0
0 0 0 0 0 0 3 0 0 0 0 0 0 0 0 0 0 0 0 0 0 0 0 0 0 0 0 0 0 0 0 0 0 0 0 0 0 0 0 0 0 0 0 0
0 0 0 0 3 3 0 0 0 0 0 0 0 0 0 0 0 0 0 0 0 0 0 0 0 0 0 0 0 0 0 0 0 0 0 0 0 0 0 0 0 0 0 0
0 0 0 0 0 0 0 0 0 0 0 0 0 0 0 0 0 0 0 0 0 0 0 0 0 0 0 0 0 0 0 0 0 0 0 0 0 0 0 0 0 0 0 0
0 0 0 0 0 0 0 0 0 0 0 0 0 0 0 0 0 0 0 0 0 0 0 0 0 0 0 0 0 0 0 0 0 0 0 0 0 0 0 0 0 0 0 0
0 0 0 0 0 0 0 0 0 0 0 0 0 0 0 0 0 0 0 0 0 0 0 0 0 0 0 0 0 0 0 0 0 0 0 0 0 0 0 0 0 0 0 0
0 0 0 0 0 0 0 0 0 0 0 0 0 0 0 0 0 0 0 0 0 0 0 0 0 0 0 0 0 0 0 0 0 0 0 0 0 0 0 0 0 0 0 0
0 0 0 0 0 0 0 0 0 0 0 0 0 0 0 0 0 0 0 0 0 0 0 0 0 0 0 0 0 0 0 0 0 0 0 0 0 0 0 0 0 0 0 0
0 0 0 0 0 0 0 0 0 0 0 0 0 0 0 0 0 0 0 0 0 0 0 0 0 0 0 0 0 0 0 0 0 0 0 0 0 0 0 0 0 0 0 0
0 0 0 0 0 0 0 0 0 0 0 0 0 0 0 0 0 0 0 0 0 0 0 0 0 0 0 0 0 0 0 0 0 0 0 0 0 0 0 0 0 0 0 0
0 0 0 0 0 0 0 0 0 0 0 0 0 0 0 0 0 0 0 0 0 0 0 0 0 0 0 0 0 0 0 0 0 0 0 0 0 0 0 0 0 0 0 0
0 0 0 0 0 0 0 0 0 0 0 0 0 0 0 0 0 0 0 0 0 0 0 0 0 0 0 0 0 0 0 0 0 0 0 0 0 0 0 0 0 0 0 0
0 0 0 0 0 0 0 0 0 0 0 0 0 0 0 0 0 0 0 0 0 0 0 0 0 0 0 0 0 0 0 0 0 0 0 0 0 0 0 0 0 0 0 0
0 0 0 0 0 0 0 0 0 0 0 0 0 0 0 0 0 0 0 0 0 0 0 0 0 0 0 0 0 0 0 0 0 0 0 0 0 0 0 0 0 0 0 0
0 0 0 0 0 0 0 0 0 0 0 0 0 0 0 0 0 0 0 0 0 0 0 0 0 0 0 0 0 0 0 0 0 0 0 0 0 0 0 0 0 0 0 0
0 0 0 0 0 0 0 0 0 0 0 0 0 0 0 0 0 0 0 0 0 0 0 0 0 0 0 0 0 0 0 0 0 0 0 0 0 0 0 0 0 0 0 0
0 0 0 0 0 0 0 0 0 0 0 0 0 0 0 0 0 0 0 0 0 0 0 0 0 0 0 0 0 0 0 0 0 0 0 0 0 0 0 0 0 0 0 0
Height
5814 5816 5818 5820 5821 5822 5822 5822 5823 5823 5823 5824 5825 5826 5827 5828 5828 5828 5829 5829 5829 5829 5828 5827 5826 5825 5824 5823 5822 5822 5822 5822 5822 5822 5822 5823 5824 5824 5825 5826 5827 5828 5828 5829
5807 5810 5812 5814 5815 5816 5817 5816 5816 5816 5818 5818 5819 5821 5822 5823 5824 5824 5824 5824 5825 5825 5825 5825 5824 5823 5822 5821 5821 5821 5820 5820 5820 5820 5820 5820 5821 5821 5822 5822 5823 5823 5824 5825
5801 5803 5805 5807 5809 5809 5809 5809 5810 5810 5812 5812 5814 5815 5816 5817 5818 5819 5819 5820 5821 5821 5821 5821 5821 5820 5819 5819 5819 5818 5818 5818 5818 5818 5818 5818 5818 5818 5818 5819 5819 5820 5820 5820
5793 5797 5797 5802 5801 5800 5800 5801 5803 5804 5805 5806 5808 5809 5810 5811 5813 5813 5813 5815 5815 5816 5816 5816 5816 5816 5815 5815 5815 5815 5815 5815 5814 5815 5815 5815 5815 5814 5814 5815 5815 5815 5815 5815
5785 5787 5790 5793 5792 5793 5793 5794 5796 5797 5799 5800 5801 5802 5803 5804 5806 5806 5807 5807 5808 5809 5810 5810 5810 5810 5810 5810 5811 5811 5811 5811 5811 5811 5811 5811 5810 5810 5810 5811 5811 5810 5810 5810
5776 5779 5781 5785 5785 5785 5787 5787 5789 5791 5792 5793 5794 5795 5796 5797 5798 5799 5799 5800 5800 5801 5802 5802 5802 5803 5804 5804 5805 5805 5806 5806 5806 5806 5806 5806 5806 5806 5805 5805 5805 5804 5804 5803
5768 5770 5772 5776 5777 5779 5780 5781 5783 5784 5785 5786 5787 5788 5788 5789 5791 5792 5792 5792 5793 5793 5794 5794 5795 5796 5797 5797 5798 5799 5799 5800 5800 5800 5800 5800 5800 5800 5799 5799 5798 5797 5797 5796
5761 5763 5766 5768 5771 5772 5772 5773 5774 5775 5777 5779 5780 5780 5781 5781 5781 5782 5783 5784 5785 5786 5786 5787 5788 5789 5790 5790 5791 5792 5792 5792 5793 5793 5793 5793 5793 5793 5792 5792 5791 5790 5789 5788
5754 5757 5758 5760 5762 5763 5764 5765 5766 5767 5769 5770 5772 5772 5773 5773 5773 5774 5774 5775 5776 5777 5777 5778 5779 5781 5782 5783 5783 5783 5784 5785 5786 5786 5786 5786 5786 5785 5785 5784 5783 5782 5780 5779
5746 5748 5750 5752 5754 5755 5756 5757 5759 5760 5761 5762 5763 5764 5764 5765 5765 5765 5766 5766 5767 5767 5768 5770 5772 5774 5775 5776 5777 5777 5778 5779 5779 5780 5779 5779 5779 5778 5777 5776 5775 5773 5772 5770
5739 5742 5743 5745 5746 5747 5749 5750 5751 5752 5753 5754 5755 5755 5756 5757 5757 5757 5758 5758 5758 5759 5760 5762 5764 5765 5767 5768 5770 5770 5771 5771 5772 5772 5772 5771 5771 5770 5769 5768 5766 5765 5763 5761
5732 5735 5737 5738 5739 5740 5742 5742 5743 5744 5745 5746 5747 5747 5748 5748 5749 5749 5750 5751 5750 5752 5753 5754 5756 5758 5760 5761 5762 5763 5763 5764 5764 5764 5764 5764 5763 5761 5760 5759 5757 5755 5754 5752
5726 5728 5730 5731 5732 5733 5734 5735 5736 5737 5737 5738 5739 5740 5740 5741 5741 5742 5743 5744 5745 5745 5747 5748 5749 5751 5753 5754 5755 5756 5756 5757 5756 5756 5756 5755 5754 5753 5751 5750 5748 5746 5744 5742
5719 5721 5723 5724 5725 5726 5727 5728 5729 5730 5731 5731 5732 5733 5733 5734 5734 5735 5736 5737 5738 5740 5741 5742 5744 5745 5746 5748 5749 5749 5750 5750 5749 5749 5748 5747 5746 5745 5744 5742 5740 5738 5735 5732
5713 5715 5717 5718 5719 5720 5721 5722 5723 5724 5724 5725 5726 5727 5728 5728 5729 5730 5731 5732 5733 5734 5736 5737 5738 5740 5741 5742 5743 5743 5744 5744 5744 5743 5742 5741 5740 5738 5736 5734 5731 5728 5725 5721
5707 5709 5711 5712 5714 5715 5716 5717 5718 5719 5720 5720 5721 5722 5723 5723 5724 5725 5727 5728 5729 5730 5731 5732 5734 5735 5736 5737 5738 5738 5738 5738 5738 5737 5736 5734 5732 5730 5727 5724 5721 5718 5714 5710
5703 5705 5706 5708 5709 5710 5711 5712 5713 5715 5715 5716 5717 5718 5719 5719 5720 5721 5723 5724 5725 5727 5728 5729 5730 5731 5731 5732 5732 5733 5733 5732 5731 5730 5729 5726 5724 5722 5719 5715 5711 5707 5703 5699
5699 5701 5702 5703 5704 5705 5706 5708 5709 5711 5712 5713 5714 5715 5716 5717 5718 5719 5720 5721 5722 5723 5724 5725 5726 5727 5727 5728 5728 5727 5727 5726 5724 5723 5721 5718 5716 5713 5709 5705 5701 5697 5692 5687
5695 5697 5699 5700 5701 5703 5704 5705 5706 5708 5709 5710 5711 5712 5714 5715 5716 5717 5718 5719 5720 5721 5722 5723 5723 5723 5723 5723 5723 5722 5721 5719 5717 5715 5713 5710 5707 5704 5700 5695 5691 5686 5682 5677
5692 5694 5696 5698 5699 5700 5702 5704 5705 5706 5708 5709 5710 5711 5713 5714 5715 5716 5717 5718 5718 5719 5719 5720 5720 5720 5719 5719 5718 5716 5714 5713 5710 5708 5705 5702 5698 5694 5690 5686 5682 5678 5673 5668
5690 5692 5694 5695 5697 5699 5701 5703 5704 5706 5707 5708 5710 5711 5712 5713 5714 5714 5715 5716 5716 5716 5716 5716 5716 5715 5714 5713 5712 5710 5708 5706 5703 5700 5697 5694 5690 5686 5683 5679 5674 5670 5665 5660
5688 5691 5692 5694 5696 5698 5700 5701 5703 5705 5706 5707 5708 5709 5710 5711 5712 5712 5713 5713 5713 5713 5712 5712 5711 5710 5709 5707 5705 5703 5701 5698 5696 5692 5689 5686 5682 5679 5675 5671 5667 5663 5658 5653
5687 5690 5692 5694 5695 5697 5699 5700 5702 5703 5705 5706 5707 5708 5709 5709 5709 5710 5710 5710 5709 5708 5708 5707 5706 5704 5702 5700 5698 5696 5694 5691 5688 5685 5682 5679 5675 5672 5668 5664 5661 5656 5652 5647
5686 5689 5691 5693 5694 5696 5698 5699 5701 5702 5703 5704 5705 5706 5706 5706 5706 5706 5706 5705 5704 5703 5702 5701 5699 5698 5696 5694 5691 5689 5687 5684 5681 5678 5675 5672 5669 5665 5662 5658 5655 5651 5647 5642
5686 5688 5690 5692 5693 5695 5696 5698 5699 5700 5701 5702 5702 5703 5703 5703 5702 5702 5701 5700 5699 5698 5696 5695 5693 5691 5689 5687 5684 5682 5680 5677 5674 5672 5669 5666 5663 5660 5656 5653 5649 5646 5642 5638
5685 5687 5689 5691 5692 5694 5695 5696 5697 5698 5698 5699 5699 5699 5699 5698 5697 5696 5695 5694 5693 5692 5690 5688 5686 5684 5682 5680 5677 5675 5673 5670 5668 5665 5663 5660 5657 5654 5651 5648 5645 5641 5638 5634
5684 5686 5688 5689 5691 5692 5693 5693 5694 5695 5695 5695 5694 5694 5693 5693 5692 5691 5689 5688 5686 5684 5682 5680 5679 5677 5675 5673 5671 5668 5666 5664 5662 5660 5657 5655 5652 5649 5647 5644 5640 5637 5634 5630
Wind_Speed
31 31 31 31 30 30 29 29 28 27 25 25 25 23 22 18 15 13 12 11 11 11 10 9 8 8 7 6 5 4 5 6 7 8 9 11 11 12 13 14 15 16 17 18
35 33 33 33 33 33 33 32 32 30 30 28 27 26 24 21 19 18 16 14 15 15 13 11 10 9 9 8 8 7 7 7 8 8 9 10 12 13 14 14 15 16 16 17
36 34 34 35 35 37 37 35 33 33 32 31 30 28 26 23 21 19 19 19 19 16 14 13 12 12 12 11 10 9 9 9 8 8 9 10 11 12 14 15 14 15 16 17
37 34 34 32 35 37 39 38 34 33 32 32 30 29 28 25 23 22 22 23 21 19 17 16 15 15 14 13 12 12 11 11 11 11 11 12 12 13 13 14 16 17 18 19
38 35 33 32 33 35 37 37 35 32 30 30 30 29 28 27 26 26 25 24 25 24 21 20 19 18 17 16 15 15 14 14 13 13 14 14 15 15 15 16 17 18 19 20
37 35 33 31 33 35 36 38 36 34 32 31 31 31 30 29 28 28 28 28 27 26 24 23 21 20 19 19 18 18 17 17 17 17 17 16 17 18 18 18 20 21 22 23
36 34 33 30 30 32 35 36 35 35 34 34 33 31 31 31 30 29 29 29 28 27 26 24 23 23 22 22 21 20 20 20 20 20 19 18 19 19 21 21 22 23 24 25
34 34 33 30 29 31 33 33 34 34 34 34 34 33 33 31 31 31 31 30 30 29 27 25 25 25 24 24 23 22 22 22 23 23 22 22 22 23 24 25 25 26 27 28
33 33 31 30 29 29 30 30 31 31 32 32 33 34 33 33 33 32 31 31 31 30 29 27 26 26 25 25 25 24 24 24 25 24 24 24 25 25 25 26 27 29 30 30
31 31 30 29 28 28 29 29 30 31 31 31 31 31 31 31 31 31 31 31 31 30 28 27 26 26 26 26 26 26 25 25 25 25 25 26 26 25 26 27 29 30 30 32
30 30 30 29 29 29 30 29 28 29 29 29 29 29 29 29 29 28 28 28 28 28 27 26 25 24 25 26 26 27 26 27 26 26 27 27 27 28 29 29 29 30 31 32
31 30 29 28 27 28 28 28 27 27 27 27 27 27 26 26 25 25 26 25 25 25 24 23 23 23 23 24 25 26 26 26 26 27 27 27 28 29 29 29 29 29 29 30
27 27 27 27 27 27 26 26 26 25 25 25 25 25 25 25 24 24 23 23 22 21 21 21 21 21 21 22 23 23 24 25 26 26 26 26 26 25 25 26 27 28 30 31
24 24 24 23 24 23 23 22 22 22 22 22 22 22 21 21 21 21 20 19 20 20 19 19 19 19 19 19 19 21 22 22 22 22 22 23 23 24 26 27 29 31 32 34
21 21 21 21 21 20 19 19 19 19 19 19 19 18 18 18 17 17 17 16 16 17 16 16 16 16 17 17 18 19 19 20 20 21 22 22 23 25 28 29 31 32 34 36
17 17 17 17 17 16 16 16 16 15 15 15 15 15 14 14 15 15 15 15 14 13 13 14 15 16 17 18 17 16 16 17 18 20 22 24 25 27 28 30 32 33 35 37
14 14 13 13 14 14 14 14 14 14 13 12 12 11 12 12 12 12 12 13 13 13 13 13 14 14 14 14 14 15 16 17 19 21 22 24 26 27 29 31 33 34 36 37
12 12 12 12 12 11 11 12 13 12 11 10 10 9 10 10 10 10 10 11 11 11 10 10 10 10 11 12 13 15 17 19 20 22 24 25 27 28 30 32 34 35 37 37
11 10 9 9 9 8 7 8 8 8 8 7 7 7 7 8 8 8 8 8 7 7 7 7 9 10 11 13 14 16 18 20 21 23 25 27 28 30 31 33 34 35 35 36
11 10 9 9 9 8 7 7 6 6 6 6 6 6 6 6 7 7 7 7 7 7 8 9 10 11 13 14 16 17 19 20 22 24 26 27 29 30 31 31 32 32 33 33
11 10 9 8 8 9 8 8 7 7 6 6 6 6 6 6 7 7 7 7 8 9 10 11 12 12 14 16 17 19 21 22 24 25 26 27 28 28 29 29 29 30 30 31
11 10 9 8 8 8 7 8 8 7 7 6 6 5 5 5 6 7 8 9 9 10 11 12 14 15 17 18 20 21 23 24 25 25 26 26 26 27 27 27 27 27 28 27
11 10 9 9 9 8 8 8 8 8 7 6 6 6 6 7 8 9 10 11 12 13 14 15 17 18 19 21 22 23 23 24 24 24 25 25 25 25 25 25 25 25 25 25
10 10 9 9 9 9 9 9 9 8 8 7 7 8 8 9 10 11 12 13 15 15 17 18 19 20 21 22 23 23 23 23 23 23 23 23 23 22 22 22 22 23 23 23
11 10 10 9 9 8 8 8 8 9 8 8 9 9 10 11 12 13 14 15 17 18 19 20 21 22 22 22 22 22 22 22 22 22 21 20 20 20 20 20 20 20 20 21
10 10 9 8 7 7 7 8 8 8 9 9 10 11 12 13 14 16 17 18 19 19 20 21 22 22 21 21 21 21 20 20 20 20 19 19 18 18 18 18 19 19 19 19
9 8 8 7 7 6 7 8 9 10 10 11 12 13 14 15 16 17 18 19 20 21 21 21 21 21 20 20 20 20 19 19 18 18 17 17 17 17 17 17 18 18 18 18
Wind_Direction
239 239 240 242 243 247 251 257 260 262 264 266 267 271 277 283 284 292 293 291 291 296 297 302 308 317 322 314 308 289 272 263 259 252 245 238 240 239 238 237 239 242 244 246
240 241 243 246 248 250 253 257 258 261 262 264 266 268 274 279 283 288 287 287 284 287 286 287 292 301 305 300 292 287 271 268 268 261 254 250 246 248 247 245 244 246 249 252
243 245 246 246 249 250 253 256 258 258 260 263 264 266 269 275 282 282 281 286 284 283 277 276 281 288 291 291 287 278 272 267 267 266 263 261 257 254 253 252 251 253 258 262
246 246 246 247 248 249 251 254 257 259 261 263 262 265 267 270 277 280 279 280 278 277 278 274 273 276 280 281 282 278 274 268 268 270 267 264 262 261 259 260 260 262 264 265
248 248 248 247 246 246 249 253 256 259 262 264 264 265 266 269 273 276 275 276 276 274 273 272 270 270 274 275 276 275 275 275 272 272 272 269 266 265 270 273 272 272 270 270
248 249 251 248 246 248 250 253 255 259 262 265 265 266 268 269 273 274 273 276 273 271 272 269 269 268 267 270 272 272 271 273 273 272 277 274 269 270 275 279 279 277 274 274
247 250 251 249 247 248 251 255 257 259 262 265 266 268 271 273 274 273 275 275 273 272 273 269 267 266 267 269 268 268 269 270 272 272 275 275 276 279 280 280 282 280 278 278
246 248 249 250 251 251 254 256 257 258 261 263 266 268 270 272 273 274 273 272 272 271 270 268 265 264 266 267 266 266 267 268 271 274 275 277 278 281 282 282 283 280 279 280
244 246 250 252 252 251 252 256 258 259 260 262 264 267 269 271 273 273 272 273 273 272 269 266 265 264 264 267 269 267 268 270 271 275 276 280 281 281 282 283 283 282 281 282
243 247 250 250 251 252 253 256 259 260 262 265 266 266 267 270 272 272 271 272 273 272 269 267 266 264 264 265 267 268 271 273 273 275 278 282 283 281 285 285 284 284 284 284
241 245 250 252 253 255 258 260 262 263 263 264 265 266 269 270 271 271 270 270 269 268 267 265 265 263 261 262 264 265 268 270 274 276 279 280 280 281 283 283 283 282 283 283
241 245 249 252 256 259 262 263 263 264 264 264 265 267 269 270 270 268 268 267 266 265 263 261 261 261 261 261 263 265 267 270 274 277 278 279 280 281 282 282 281 282 284 285
240 243 249 253 257 261 262 262 264 264 265 266 266 267 268 269 268 267 265 263 262 261 261 260 259 259 257 259 261 265 269 272 275 275 277 280 280 280 281 282 283 287 288 289
244 247 250 253 255 258 262 262 261 262 263 264 265 265 265 265 264 261 259 258 258 258 256 255 254 256 258 261 264 269 270 272 273 275 278 279 279 282 284 286 288 289 291 292
246 250 253 254 256 259 260 259 259 261 263 263 263 261 261 260 259 257 255 254 255 254 253 254 256 258 261 266 268 268 270 273 275 277 278 282 283 285 288 290 291 293 293 294
248 250 252 256 256 253 253 255 256 258 259 259 257 256 256 255 255 254 251 249 248 248 249 252 257 260 264 267 268 269 272 275 277 280 283 285 287 290 292 294 295 295 295 296
244 246 249 248 248 246 245 246 247 250 251 251 249 250 248 245 244 244 243 243 242 248 250 251 255 259 261 262 264 269 274 278 281 284 287 290 292 294 295 296 297 298 298 299
242 241 239 242 243 239 238 239 240 240 243 242 241 237 232 234 236 236 235 238 237 238 241 248 256 260 265 269 273 278 282 286 288 290 293 295 296 297 298 300 300 301 302 303
233 228 225 224 221 218 218 223 224 224 223 222 217 215 218 225 228 226 223 223 227 239 251 258 266 273 279 283 285 287 290 292 294 296 298 299 300 301 303 304 305 306 306 307
217 215 213 211 209 208 204 199 197 199 199 199 203 209 214 219 223 226 230 236 245 254 263 272 276 278 282 286 288 290 293 297 300 301 302 303 304 305 306 307 308 309 309 310
206 203 201 200 200 200 201 202 201 201 202 202 204 212 219 226 232 235 241 247 257 267 274 279 283 287 290 293 295 296 299 301 302 303 304 305 306 307 308 310 311 312 314 315
196 194 193 192 190 192 197 201 203 203 202 201 205 212 220 230 238 244 252 260 268 277 283 286 289 292 294 296 298 301 302 302 303 304 305 306 307 309 310 312 314 316 318 320
190 191 192 195 194 194 194 196 197 200 201 205 214 222 233 244 251 257 264 270 276 281 285 289 292 295 297 299 301 302 302 302 303 304 305 307 308 309 311 313 315 318 321 323
189 194 198 202 202 200 202 208 213 217 221 230 235 240 247 255 263 269 275 280 284 287 289 292 294 296 297 298 299 300 300 301 303 305 306 307 309 311 313 315 318 321 323 325
189 195 201 202 204 208 213 220 225 231 236 242 248 256 264 271 275 279 282 284 286 287 289 291 292 294 295 296 298 298 299 301 303 305 306 308 311 313 316 318 321 323 325 328
190 195 197 200 207 215 226 234 238 242 249 257 263 267 273 277 280 282 283 284 285 287 289 291 292 293 294 295 297 298 299 301 303 304 306 308 311 314 317 319 322 325 328 331
193 201 207 210 215 225 237 245 250 255 260 266 271 275 278 280 283 285 285 286 287 289 290 291 291 293 294 296 297 297 298 300 302 303 305 307 310 313 317 320 322 325 328 331